STARLINK-4480 (53416 NORAD) Tracking and Keplerian Element Data

This shows tracking and keplerian element data for the satellite.

Feedback or suggestion? Click here.




ElementValue
Catalog53416
NameSTARLINK-4480
Epoch Orbit1632
Epoch Day325.17166595
Epoch Year2022
RAAN121.4013
Inclination53.2187
Eccentricity0.000156
Argument of Perigee47.7463
Mean Anonmoly312.3661
Mean Motion15.08836392
Decay Rate-6.8E-07
L11 53416U 22097AE 22325.17166595 -.00000068 00000+0 13798-4 0 9999
L22 53416 53.2187 121.4013 0001560 47.7463 312.3661 15.08836392 16321



Live tracking and technical data element details for STARLINK-4480 (NORAD 53416). STARLINK-4480 can be tracked NOW for your location showing map with azimuth and elevation plus other details from your city location.







IsCatalogInMostPopularTable: catalog: 53416, numindb: 3
Update: records affected: 1



GetName: 53416 STARLINK-4480

Hit Count: updated at: Thu, 08 Dec 2022 09:49:15 GMT